Tracking 19242 objects as of 16-Aug-2018
HD Live streaming from Space Station
objects crossing your sky now

GLOBALSTAR M040

Track GLOBALSTAR M040 now!
10-day predictions
GLOBALSTAR M040 is classified as:


NORAD ID: 25622
Int'l Code: 1999-004B
Perigee: 1,422.0 km
Apogee: 1,422.6 km
Inclination: 52.0 °
Period: 114.1 minutes
Semi major axis: 7793 km
RCS: 2.1681 m2 (large)
Launch date: February 9, 1999
Source: Globalstar (GLOB)
Launch site: TYURATAM MISSILE AND SPACE COMPLEX (TTMTR)
aabbcc
Your satellite tracking list
Your tracking list is empty




NASA's NSSDC Master Catalog

Two Line Element Set (TLE):
1 25622U 99004B   18228.46474275 -.00000028  00000-0  42520-3 0  9996
2 25622  51.9919  95.3334 0000376 334.9665  87.0488 12.61883808900337
Source of the keplerian elements: AFSPC